{"data":{"norad_id":67860,"epoch":"2026-05-25T04:28:19.394976Z","epoch_age_seconds":56182,"freshness":"FRESH","line1":"1 67860U 26034L   26145.18633559  .00018579  00000+0  63785-3 0  9991","line2":"2 67860  53.1576 209.2129 0000818  82.9550 277.1543 15.30199454 15777","mean_motion":15.30199454,"eccentricity":8.18e-5,"inclination_deg":53.1576,"raan_deg":209.2129,"arg_perigee_deg":82.955,"mean_anomaly_deg":277.1543,"bstar":0.00063785,"rev_number":1577,"period_min":94.105379284758,"perigee_km":474.65609534476,"apogee_km":475.77730401002,"semimajor_km":6853.3536996774,"source":"CELESTRAK","updated_at":"2026-05-25T13:38:21.726733Z"}}